contact:dominique.lefevre@mio.osupytheas.fr, maurice.libes@osupytheas.fr, didier.mallarino@osupytheas.fr
Project:EMSO http://www.emso-fr.org/EMSO-France
Depth: 2436.0 m
Title:EMSO Ligure Ouest : Data MII capteur MICROCAT
DateTime_Computer,Latitude,Longitude,Temperature,Conductivity,Pressure,DateTime_Instrument
DateTime_Computer,Latitude,Longitude,degC,S m-1,dbar,DateTime_Instrument
2020-11-27T00:01:08Z,42.805,6.029,13.2977,4.59976,2470.194,2020-11-27T02:02:05Z
2020-11-27T00:04:11Z,42.805,6.029,13.2972,4.59976,2470.194,2020-11-27T02:05:08Z
2020-11-27T00:07:14Z,42.805,6.029,13.2976,4.59976,2470.143,2020-11-27T02:08:11Z
2020-11-27T00:10:17Z,42.805,6.029,13.2971,4.59976,2470.18,2020-11-27T02:11:14Z
2020-11-27T00:13:20Z,42.805,6.029,13.2973,4.59976,2470.18,2020-11-27T02:14:17Z
2020-11-27T00:16:23Z,42.805,6.029,13.2973,4.59976,2470.18,2020-11-27T02:17:21Z
2020-11-27T00:19:26Z,42.805,6.029,13.2977,4.59976,2470.171,2020-11-27T02:20:24Z
2020-11-27T00:22:29Z,42.805,6.029,13.2975,4.59976,2470.171,2020-11-27T02:23:27Z
2020-11-27T00:25:33Z,42.805,6.029,13.2971,4.59976,2470.203,2020-11-27T02:26:30Z
2020-11-27T00:28:36Z,42.805,6.029,13.2974,4.59978,2470.18,2020-11-27T02:29:33Z
2020-11-27T00:31:39Z,42.805,6.029,13.2976,4.59976,2470.203,2020-11-27T02:32:36Z
2020-11-27T00:34:42Z,42.805,6.029,13.2974,4.59976,2470.156,2020-11-27T02:35:39Z
2020-11-27T00:37:45Z,42.805,6.029,13.2978,4.59976,2470.217,2020-11-27T02:38:42Z
2020-11-27T00:40:48Z,42.805,6.029,13.2976,4.59976,2470.171,2020-11-27T02:41:46Z
2020-11-27T00:43:51Z,42.805,6.029,13.2976,4.59976,2470.194,2020-11-27T02:44:49Z
2020-11-27T00:46:54Z,42.805,6.029,13.2974,4.59976,2470.18,2020-11-27T02:47:52Z
2020-11-27T00:49:57Z,42.805,6.029,13.2971,4.59976,2470.194,2020-11-27T02:50:55Z
2020-11-27T00:53:01Z,42.805,6.029,13.2976,4.59976,2470.156,2020-11-27T02:53:58Z
2020-11-27T00:56:04Z,42.805,6.029,13.2976,4.59976,2470.203,2020-11-27T02:57:01Z
2020-11-27T00:59:07Z,42.805,6.029,13.2973,4.59978,2470.18,2020-11-27T03:00:04Z
2020-11-27T01:02:10Z,42.805,6.029,13.2974,4.59976,2470.194,2020-11-27T03:03:07Z
2020-11-27T01:05:13Z,42.805,6.029,13.2971,4.59976,2470.18,2020-11-27T03:06:11Z
2020-11-27T01:08:16Z,42.805,6.029,13.2974,4.59976,2470.203,2020-11-27T03:09:14Z
2020-11-27T01:11:19Z,42.805,6.029,13.2974,4.59978,2470.194,2020-11-27T03:12:17Z
2020-11-27T01:14:22Z,42.805,6.029,13.2974,4.59976,2470.227,2020-11-27T03:15:20Z
2020-11-27T01:17:26Z,42.805,6.029,13.2974,4.59976,2470.18,2020-11-27T03:18:23Z
2020-11-27T01:20:29Z,42.805,6.029,13.2979,4.59976,2470.18,2020-11-27T03:21:26Z
2020-11-27T01:23:32Z,42.805,6.029,13.2975,4.59976,2470.217,2020-11-27T03:24:29Z
2020-11-27T01:26:35Z,42.805,6.029,13.2972,4.59977,2470.18,2020-11-27T03:27:32Z
2020-11-27T01:29:38Z,42.805,6.029,13.2974,4.59978,2470.18,2020-11-27T03:30:36Z
2020-11-27T01:32:41Z,42.805,6.029,13.2974,4.59977,2470.18,2020-11-27T03:33:39Z
2020-11-27T01:35:44Z,42.805,6.029,13.2977,4.59976,2470.18,2020-11-27T03:36:42Z
2020-11-27T01:38:47Z,42.805,6.029,13.2974,4.59976,2470.171,2020-11-27T03:39:45Z
2020-11-27T01:41:51Z,42.805,6.029,13.2978,4.59976,2470.18,2020-11-27T03:42:48Z
2020-11-27T01:44:54Z,42.805,6.029,13.2975,4.59976,2470.18,2020-11-27T03:45:51Z
2020-11-27T01:47:57Z,42.805,6.029,13.2977,4.59976,2470.203,2020-11-27T03:48:54Z
2020-11-27T01:51:00Z,42.805,6.029,13.2976,4.59977,2470.203,2020-11-27T03:51:57Z
2020-11-27T01:54:03Z,42.805,6.029,13.2975,4.59978,2470.217,2020-11-27T03:55:01Z
2020-11-27T01:57:06Z,42.805,6.029,13.2976,4.59976,2470.203,2020-11-27T03:58:04Z
2020-11-27T02:00:09Z,42.805,6.029,13.2975,4.59978,2470.203,2020-11-27T04:01:07Z
2020-11-27T02:03:12Z,42.805,6.029,13.2976,4.59976,2470.227,2020-11-27T04:04:10Z
2020-11-27T02:06:16Z,42.805,6.029,13.2974,4.59976,2470.25,2020-11-27T04:07:13Z
2020-11-27T02:09:19Z,42.805,6.029,13.2976,4.59978,2470.227,2020-11-27T04:10:16Z
2020-11-27T02:12:22Z,42.805,6.029,13.2974,4.59978,2470.25,2020-11-27T04:13:19Z
2020-11-27T02:15:25Z,42.805,6.029,13.2976,4.59978,2470.227,2020-11-27T04:16:22Z
2020-11-27T02:18:28Z,42.805,6.029,13.2973,4.59978,2470.217,2020-11-27T04:19:25Z
2020-11-27T02:21:31Z,42.805,6.029,13.2974,4.59976,2470.227,2020-11-27T04:22:29Z
2020-11-27T02:24:34Z,42.805,6.029,13.2978,4.59976,2470.217,2020-11-27T04:25:32Z
2020-11-27T02:27:37Z,42.805,6.029,13.2976,4.59978,2470.203,2020-11-27T04:28:35Z
2020-11-27T02:30:41Z,42.805,6.029,13.2974,4.59978,2470.297,2020-11-27T04:31:38Z
2020-11-27T02:33:44Z,42.805,6.029,13.2978,4.59978,2470.227,2020-11-27T04:34:41Z
2020-11-27T02:36:47Z,42.805,6.029,13.2976,4.59977,2470.227,2020-11-27T04:37:44Z
2020-11-27T02:39:50Z,42.805,6.029,13.2974,4.59978,2470.217,2020-11-27T04:40:47Z
2020-11-27T02:42:53Z,42.805,6.029,13.2971,4.59978,2470.227,2020-11-27T04:43:50Z
2020-11-27T02:45:56Z,42.805,6.029,13.2974,4.59978,2470.227,2020-11-27T04:46:54Z
2020-11-27T02:48:59Z,42.805,6.029,13.2976,4.59978,2470.227,2020-11-27T04:49:57Z
2020-11-27T02:52:02Z,42.805,6.029,13.2971,4.59978,2470.264,2020-11-27T04:53:00Z
2020-11-27T02:55:06Z,42.805,6.029,13.2976,4.59978,2470.273,2020-11-27T04:56:03Z
2020-11-27T02:58:09Z,42.805,6.029,13.2974,4.59978,2470.25,2020-11-27T04:59:06Z
2020-11-27T03:01:12Z,42.805,6.029,13.2973,4.59978,2470.25,2020-11-27T05:02:09Z
2020-11-27T03:04:15Z,42.805,6.029,13.2975,4.59978,2470.25,2020-11-27T05:05:12Z
2020-11-27T03:07:18Z,42.805,6.029,13.2976,4.59978,2470.264,2020-11-27T05:08:15Z
2020-11-27T03:10:21Z,42.805,6.029,13.2975,4.59978,2470.25,2020-11-27T05:11:19Z
2020-11-27T03:13:24Z,42.805,6.029,13.2976,4.59978,2470.227,2020-11-27T05:14:22Z
2020-11-27T03:16:27Z,42.805,6.029,13.2974,4.59978,2470.25,2020-11-27T05:17:25Z
2020-11-27T03:19:30Z,42.805,6.029,13.2972,4.59978,2470.273,2020-11-27T05:20:28Z
2020-11-27T03:22:34Z,42.805,6.029,13.2976,4.59978,2470.227,2020-11-27T05:23:31Z
2020-11-27T03:25:37Z,42.805,6.029,13.2979,4.59978,2470.264,2020-11-27T05:26:34Z
2020-11-27T03:28:40Z,42.805,6.029,13.2974,4.59978,2470.24,2020-11-27T05:29:37Z
2020-11-27T03:31:43Z,42.805,6.029,13.2977,4.59978,2470.287,2020-11-27T05:32:40Z
2020-11-27T03:34:46Z,42.805,6.029,13.2973,4.59979,2470.273,2020-11-27T05:35:44Z
2020-11-27T03:37:49Z,42.805,6.029,13.2980,4.59979,2470.264,2020-11-27T05:38:47Z
2020-11-27T03:40:52Z,42.805,6.029,13.2978,4.59979,2470.273,2020-11-27T05:41:50Z
2020-11-27T03:43:55Z,42.805,6.029,13.2974,4.59979,2470.273,2020-11-27T05:44:53Z
2020-11-27T03:46:59Z,42.805,6.029,13.2975,4.59979,2470.32,2020-11-27T05:47:56Z
2020-11-27T03:50:02Z,42.805,6.029,13.2974,4.59979,2470.264,2020-11-27T05:50:59Z
2020-11-27T03:53:05Z,42.805,6.029,13.2979,4.59979,2470.287,2020-11-27T05:54:02Z
2020-11-27T03:56:08Z,42.805,6.029,13.2976,4.59978,2470.264,2020-11-27T05:57:05Z
2020-11-27T03:59:11Z,42.805,6.029,13.2981,4.59978,2470.297,2020-11-27T06:00:09Z
2020-11-27T04:02:14Z,42.805,6.029,13.2976,4.59979,2470.297,2020-11-27T06:03:12Z
2020-11-27T04:05:17Z,42.805,6.029,13.2972,4.59979,2470.297,2020-11-27T06:06:15Z
2020-11-27T04:08:20Z,42.805,6.029,13.2976,4.59980,2470.31,2020-11-27T06:09:18Z
2020-11-27T04:11:23Z,42.805,6.029,13.2974,4.59980,2470.31,2020-11-27T06:12:21Z
2020-11-27T04:14:27Z,42.805,6.029,13.2972,4.59979,2470.297,2020-11-27T06:15:24Z
2020-11-27T04:17:30Z,42.805,6.029,13.2975,4.59980,2470.273,2020-11-27T06:18:27Z
2020-11-27T04:20:33Z,42.805,6.029,13.2971,4.59979,2470.297,2020-11-27T06:21:30Z
2020-11-27T04:23:36Z,42.805,6.029,13.2975,4.59978,2470.297,2020-11-27T06:24:33Z
2020-11-27T04:26:39Z,42.805,6.029,13.2978,4.59979,2470.334,2020-11-27T06:27:37Z
2020-11-27T04:29:42Z,42.805,6.029,13.2978,4.59978,2470.287,2020-11-27T06:30:40Z
2020-11-27T04:32:45Z,42.805,6.029,13.2980,4.59981,2470.297,2020-11-27T06:33:43Z
2020-11-27T04:35:49Z,42.805,6.029,13.2976,4.59979,2470.297,2020-11-27T06:36:46Z
2020-11-27T04:38:52Z,42.805,6.029,13.2977,4.59979,2470.32,2020-11-27T06:39:49Z
2020-11-27T04:41:55Z,42.805,6.029,13.2974,4.59979,2470.31,2020-11-27T06:42:52Z
2020-11-27T04:44:58Z,42.805,6.029,13.2975,4.59979,2470.273,2020-11-27T06:45:55Z
2020-11-27T04:48:01Z,42.805,6.029,13.2978,4.59979,2470.32,2020-11-27T06:48:58Z
2020-11-27T04:51:04Z,42.805,6.029,13.2979,4.59980,2470.334,2020-11-27T06:52:02Z
2020-11-27T04:54:07Z,42.805,6.029,13.2976,4.59979,2470.32,2020-11-27T06:55:05Z
2020-11-27T04:57:10Z,42.805,6.029,13.2976,4.59979,2470.32,2020-11-27T06:58:08Z
2020-11-27T05:00:13Z,42.805,6.029,13.2979,4.59979,2470.334,2020-11-27T07:01:11Z
2020-11-27T05:03:17Z,42.805,6.029,13.2976,4.59979,2470.297,2020-11-27T07:04:14Z
2020-11-27T05:06:20Z,42.805,6.029,13.2974,4.59978,2470.297,2020-11-27T07:07:17Z
2020-11-27T05:09:23Z,42.805,6.029,13.2975,4.59980,2470.31,2020-11-27T07:10:20Z
2020-11-27T05:12:26Z,42.805,6.029,13.2975,4.59981,2470.334,2020-11-27T07:13:23Z
2020-11-27T05:15:29Z,42.805,6.029,13.2977,4.59981,2470.32,2020-11-27T07:16:27Z
2020-11-27T05:18:32Z,42.805,6.029,13.2976,4.59979,2470.297,2020-11-27T07:19:30Z
2020-11-27T05:21:35Z,42.805,6.029,13.2974,4.59979,2470.334,2020-11-27T07:22:33Z
2020-11-27T05:24:38Z,42.805,6.029,13.2974,4.59980,2470.273,2020-11-27T07:25:36Z
2020-11-27T05:27:42Z,42.805,6.029,13.2977,4.59980,2470.32,2020-11-27T07:28:39Z
2020-11-27T05:30:45Z,42.805,6.029,13.2976,4.59979,2470.334,2020-11-27T07:31:42Z
2020-11-27T05:33:48Z,42.805,6.029,13.2976,4.59979,2470.32,2020-11-27T07:34:45Z
2020-11-27T05:36:51Z,42.805,6.029,13.2976,4.59980,2470.334,2020-11-27T07:37:48Z
2020-11-27T05:39:54Z,42.805,6.029,13.2977,4.59980,2470.334,2020-11-27T07:40:52Z
2020-11-27T05:42:57Z,42.805,6.029,13.2976,4.59981,2470.273,2020-11-27T07:43:55Z
2020-11-27T05:46:00Z,42.805,6.029,13.2978,4.59979,2470.297,2020-11-27T07:46:58Z
2020-11-27T05:49:03Z,42.805,6.029,13.2976,4.59979,2470.31,2020-11-27T07:50:01Z
2020-11-27T05:52:07Z,42.805,6.029,13.2977,4.59981,2470.334,2020-11-27T07:53:04Z
2020-11-27T05:55:10Z,42.805,6.029,13.2974,4.59979,2470.306,2020-11-27T07:56:07Z
2020-11-27T05:58:13Z,42.805,6.029,13.2977,4.59979,2470.32,2020-11-27T07:59:10Z
2020-11-27T06:01:16Z,42.805,6.029,13.2974,4.59979,2470.297,2020-11-27T08:02:13Z
2020-11-27T06:04:19Z,42.805,6.029,13.2976,4.59980,2470.297,2020-11-27T08:05:17Z
2020-11-27T06:07:22Z,42.805,6.029,13.2972,4.59979,2470.297,2020-11-27T08:08:20Z
2020-11-27T06:10:25Z,42.805,6.029,13.2975,4.59980,2470.32,2020-11-27T08:11:23Z
2020-11-27T06:13:28Z,42.805,6.029,13.2977,4.59980,2470.32,2020-11-27T08:14:26Z
2020-11-27T06:16:32Z,42.805,6.029,13.2975,4.59979,2470.32,2020-11-27T08:17:29Z
2020-11-27T06:19:35Z,42.805,6.029,13.2976,4.59979,2470.32,2020-11-27T08:20:32Z
2020-11-27T06:22:38Z,42.805,6.029,13.2976,4.59979,2470.31,2020-11-27T08:23:35Z
2020-11-27T06:25:41Z,42.805,6.029,13.2971,4.59979,2470.32,2020-11-27T08:26:38Z
2020-11-27T06:28:44Z,42.805,6.029,13.2976,4.59979,2470.31,2020-11-27T08:29:42Z
2020-11-27T06:31:47Z,42.805,6.029,13.2976,4.59980,2470.273,2020-11-27T08:32:45Z
2020-11-27T06:34:50Z,42.805,6.029,13.2972,4.59980,2470.31,2020-11-27T08:35:48Z
2020-11-27T06:37:53Z,42.805,6.029,13.2975,4.59980,2470.334,2020-11-27T08:38:51Z
2020-11-27T06:40:57Z,42.805,6.029,13.2979,4.59980,2470.334,2020-11-27T08:41:54Z
2020-11-27T06:44:00Z,42.805,6.029,13.2977,4.59979,2470.297,2020-11-27T08:44:57Z
2020-11-27T06:47:03Z,42.805,6.029,13.2978,4.59979,2470.287,2020-11-27T08:48:00Z
2020-11-27T06:50:06Z,42.805,6.029,13.2974,4.59981,2470.32,2020-11-27T08:51:03Z
2020-11-27T06:53:09Z,42.805,6.029,13.2974,4.59981,2470.32,2020-11-27T08:54:07Z
2020-11-27T06:56:12Z,42.805,6.029,13.2977,4.59980,2470.297,2020-11-27T08:57:10Z
2020-11-27T06:59:15Z,42.805,6.029,13.2977,4.59979,2470.334,2020-11-27T09:00:13Z
2020-11-27T07:02:18Z,42.805,6.029,13.2979,4.59980,2470.297,2020-11-27T09:03:16Z
2020-11-27T07:05:22Z,42.805,6.029,13.2974,4.59979,2470.287,2020-11-27T09:06:19Z
2020-11-27T07:08:25Z,42.805,6.029,13.2972,4.59979,2470.32,2020-11-27T09:09:22Z
2020-11-27T07:11:28Z,42.805,6.029,13.2976,4.59981,2470.297,2020-11-27T09:12:25Z
2020-11-27T07:14:31Z,42.805,6.029,13.2978,4.59981,2470.31,2020-11-27T09:15:28Z
2020-11-27T07:17:34Z,42.805,6.029,13.2975,4.59980,2470.273,2020-11-27T09:18:32Z
2020-11-27T07:20:37Z,42.805,6.029,13.2976,4.59980,2470.334,2020-11-27T09:21:35Z
2020-11-27T07:23:40Z,42.805,6.029,13.2976,4.59981,2470.31,2020-11-27T09:24:38Z
2020-11-27T07:26:43Z,42.805,6.029,13.2977,4.59981,2470.32,2020-11-27T09:27:41Z
2020-11-27T07:29:47Z,42.805,6.029,13.2977,4.59981,2470.273,2020-11-27T09:30:44Z
2020-11-27T07:32:50Z,42.805,6.029,13.2982,4.59980,2470.334,2020-11-27T09:33:47Z
2020-11-27T07:35:53Z,42.805,6.029,13.2978,4.59979,2470.297,2020-11-27T09:36:50Z
2020-11-27T07:38:56Z,42.805,6.029,13.2975,4.59980,2470.287,2020-11-27T09:39:53Z
2020-11-27T07:41:59Z,42.805,6.029,13.2976,4.59981,2470.25,2020-11-27T09:42:57Z
2020-11-27T07:45:02Z,42.805,6.029,13.2976,4.59979,2470.31,2020-11-27T09:46:00Z
2020-11-27T07:48:05Z,42.805,6.029,13.2976,4.59980,2470.273,2020-11-27T09:49:03Z
2020-11-27T07:51:08Z,42.805,6.029,13.2979,4.59979,2470.264,2020-11-27T09:52:06Z
2020-11-27T07:54:12Z,42.805,6.029,13.2979,4.59980,2470.297,2020-11-27T09:55:09Z
2020-11-27T07:57:15Z,42.805,6.029,13.2980,4.59981,2470.273,2020-11-27T09:58:12Z
2020-11-27T08:00:18Z,42.805,6.029,13.2976,4.59980,2470.297,2020-11-27T10:01:15Z
2020-11-27T08:03:21Z,42.805,6.029,13.2980,4.59981,2470.273,2020-11-27T10:04:18Z
2020-11-27T08:06:24Z,42.805,6.029,13.2976,4.59980,2470.264,2020-11-27T10:07:22Z
2020-11-27T08:09:27Z,42.805,6.029,13.2979,4.59981,2470.273,2020-11-27T10:10:25Z
2020-11-27T08:12:30Z,42.805,6.029,13.2979,4.59980,2470.31,2020-11-27T10:13:28Z
2020-11-27T08:15:33Z,42.805,6.029,13.2978,4.59981,2470.297,2020-11-27T10:16:31Z
2020-11-27T08:18:37Z,42.805,6.029,13.2978,4.59981,2470.31,2020-11-27T10:19:34Z
2020-11-27T08:21:40Z,42.805,6.029,13.2977,4.59981,2470.297,2020-11-27T10:22:37Z
2020-11-27T08:24:43Z,42.805,6.029,13.2975,4.59981,2470.297,2020-11-27T10:25:40Z
2020-11-27T08:27:46Z,42.805,6.029,13.2978,4.59983,2470.31,2020-11-27T10:28:43Z
2020-11-27T08:30:49Z,42.805,6.029,13.2974,4.59981,2470.287,2020-11-27T10:31:47Z
2020-11-27T08:33:52Z,42.805,6.029,13.2977,4.59981,2470.273,2020-11-27T10:34:50Z
2020-11-27T08:36:55Z,42.805,6.029,13.2975,4.59981,2470.264,2020-11-27T10:37:53Z
2020-11-27T08:39:58Z,42.805,6.029,13.2983,4.59981,2470.25,2020-11-27T10:40:56Z
2020-11-27T08:43:02Z,42.805,6.029,13.2979,4.59981,2470.273,2020-11-27T10:43:59Z
2020-11-27T08:46:05Z,42.805,6.029,13.2979,4.59981,2470.264,2020-11-27T10:47:02Z
2020-11-27T08:49:08Z,42.805,6.029,13.2977,4.59982,2470.273,2020-11-27T10:50:05Z
2020-11-27T08:52:11Z,42.805,6.029,13.2976,4.59981,2470.273,2020-11-27T10:53:08Z
2020-11-27T08:55:14Z,42.805,6.029,13.2976,4.59981,2470.273,2020-11-27T10:56:12Z
2020-11-27T08:58:17Z,42.805,6.029,13.2980,4.59981,2470.264,2020-11-27T10:59:15Z
2020-11-27T09:01:20Z,42.805,6.029,13.2980,4.59982,2470.273,2020-11-27T11:02:18Z
2020-11-27T09:04:23Z,42.805,6.029,13.2980,4.59981,2470.287,2020-11-27T11:05:21Z
2020-11-27T09:07:27Z,42.805,6.029,13.2979,4.59981,2470.264,2020-11-27T11:08:24Z
2020-11-27T09:10:30Z,42.805,6.029,13.2976,4.59981,2470.25,2020-11-27T11:11:27Z
2020-11-27T09:13:33Z,42.805,6.029,13.2979,4.59982,2470.273,2020-11-27T11:14:30Z
2020-11-27T09:16:36Z,42.805,6.029,13.2977,4.59981,2470.264,2020-11-27T11:17:33Z
2020-11-27T09:19:39Z,42.805,6.029,13.2979,4.59981,2470.31,2020-11-27T11:20:37Z
2020-11-27T09:22:42Z,42.805,6.029,13.2981,4.59981,2470.273,2020-11-27T11:23:40Z
2020-11-27T09:25:45Z,42.805,6.029,13.2980,4.59981,2470.287,2020-11-27T11:26:43Z
2020-11-27T09:28:48Z,42.805,6.029,13.2976,4.59980,2470.273,2020-11-27T11:29:46Z
2020-11-27T09:31:52Z,42.805,6.029,13.2980,4.59981,2470.25,2020-11-27T11:32:49Z
2020-11-27T09:34:55Z,42.805,6.029,13.2975,4.59981,2470.301,2020-11-27T11:35:52Z
2020-11-27T09:37:58Z,42.805,6.029,13.2975,4.59981,2470.227,2020-11-27T11:38:55Z
2020-11-27T09:41:01Z,42.805,6.029,13.2979,4.59981,2470.25,2020-11-27T11:41:59Z
2020-11-27T09:44:04Z,42.805,6.029,13.2974,4.59981,2470.24,2020-11-27T11:45:02Z
2020-11-27T09:47:07Z,42.805,6.029,13.2975,4.59981,2470.25,2020-11-27T11:48:05Z
2020-11-27T09:50:10Z,42.805,6.029,13.2976,4.59981,2470.25,2020-11-27T11:51:08Z
2020-11-27T09:53:14Z,42.805,6.029,13.2976,4.59981,2470.287,2020-11-27T11:54:11Z
2020-11-27T09:56:17Z,42.805,6.029,13.2981,4.59981,2470.264,2020-11-27T11:57:14Z
2020-11-27T09:59:20Z,42.805,6.029,13.2975,4.59981,2470.25,2020-11-27T12:00:17Z
2020-11-27T10:02:23Z,42.805,6.029,13.2981,4.59980,2470.227,2020-11-27T12:03:20Z
2020-11-27T10:05:26Z,42.805,6.029,13.2978,4.59980,2470.287,2020-11-27T12:06:24Z
2020-11-27T10:08:29Z,42.805,6.029,13.2977,4.59979,2470.264,2020-11-27T12:09:27Z
2020-11-27T10:11:32Z,42.805,6.029,13.2975,4.59980,2470.24,2020-11-27T12:12:30Z
2020-11-27T10:14:35Z,42.805,6.029,13.2978,4.59980,2470.203,2020-11-27T12:15:33Z
2020-11-27T10:17:39Z,42.805,6.029,13.2976,4.59980,2470.24,2020-11-27T12:18:36Z
2020-11-27T10:20:42Z,42.805,6.029,13.2977,4.59981,2470.18,2020-11-27T12:21:39Z
2020-11-27T10:23:45Z,42.805,6.029,13.2978,4.59979,2470.25,2020-11-27T12:24:42Z
2020-11-27T10:26:48Z,42.805,6.029,13.2979,4.59980,2470.227,2020-11-27T12:27:45Z
2020-11-27T10:29:51Z,42.805,6.029,13.2976,4.59980,2470.217,2020-11-27T12:30:49Z
2020-11-27T10:32:54Z,42.805,6.029,13.2975,4.59981,2470.217,2020-11-27T12:33:52Z
2020-11-27T10:35:57Z,42.805,6.029,13.2975,4.59981,2470.217,2020-11-27T12:36:55Z
2020-11-27T10:39:01Z,42.805,6.029,13.2975,4.59980,2470.194,2020-11-27T12:39:58Z
2020-11-27T10:42:04Z,42.805,6.029,13.2976,4.59980,2470.24,2020-11-27T12:43:01Z
2020-11-27T10:45:07Z,42.805,6.029,13.2979,4.59980,2470.24,2020-11-27T12:46:04Z
2020-11-27T10:48:10Z,42.805,6.029,13.2978,4.59980,2470.203,2020-11-27T12:49:07Z
2020-11-27T10:51:13Z,42.805,6.029,13.2977,4.59981,2470.227,2020-11-27T12:52:10Z
2020-11-27T10:54:16Z,42.805,6.029,13.2976,4.59980,2470.203,2020-11-27T12:55:14Z
2020-11-27T10:57:19Z,42.805,6.029,13.2974,4.59981,2470.217,2020-11-27T12:58:17Z
2020-11-27T11:00:22Z,42.805,6.029,13.2979,4.59980,2470.227,2020-11-27T13:01:20Z
2020-11-27T11:03:25Z,42.805,6.029,13.2979,4.59980,2470.203,2020-11-27T13:04:23Z
2020-11-27T11:06:29Z,42.805,6.029,13.2976,4.59980,2470.24,2020-11-27T13:07:26Z
2020-11-27T11:09:32Z,42.805,6.029,13.2982,4.59979,2470.24,2020-11-27T13:10:29Z
2020-11-27T11:12:35Z,42.805,6.029,13.2975,4.59979,2470.203,2020-11-27T13:13:32Z
2020-11-27T11:15:38Z,42.805,6.029,13.2979,4.59980,2470.24,2020-11-27T13:16:35Z
2020-11-27T11:18:41Z,42.805,6.029,13.2977,4.59980,2470.18,2020-11-27T13:19:39Z
2020-11-27T11:21:44Z,42.805,6.029,13.2980,4.59980,2470.194,2020-11-27T13:22:42Z
2020-11-27T11:24:47Z,42.805,6.029,13.2978,4.59980,2470.227,2020-11-27T13:25:45Z
2020-11-27T11:27:51Z,42.805,6.029,13.2974,4.59980,2470.227,2020-11-27T13:28:48Z
2020-11-27T11:30:54Z,42.805,6.029,13.2978,4.59981,2470.18,2020-11-27T13:31:51Z
2020-11-27T11:33:57Z,42.805,6.029,13.2976,4.59979,2470.217,2020-11-27T13:34:54Z
2020-11-27T11:37:00Z,42.805,6.029,13.2983,4.59979,2470.203,2020-11-27T13:37:57Z
2020-11-27T11:40:03Z,42.805,6.029,13.2976,4.59979,2470.203,2020-11-27T13:41:00Z
2020-11-27T11:43:06Z,42.805,6.029,13.2974,4.59979,2470.217,2020-11-27T13:44:04Z
2020-11-27T11:46:09Z,42.805,6.029,13.2980,4.59980,2470.203,2020-11-27T13:47:07Z
2020-11-27T11:49:12Z,42.805,6.029,13.2977,4.59980,2470.227,2020-11-27T13:50:10Z
2020-11-27T11:52:16Z,42.805,6.029,13.2973,4.59979,2470.189,2020-11-27T13:53:13Z
2020-11-27T11:55:19Z,42.805,6.029,13.2979,4.59980,2470.203,2020-11-27T13:56:16Z
2020-11-27T11:58:22Z,42.805,6.029,13.2981,4.59980,2470.217,2020-11-27T13:59:19Z
2020-11-27T12:01:25Z,42.805,6.029,13.2977,4.59979,2470.203,2020-11-27T14:02:22Z
2020-11-27T12:04:28Z,42.805,6.029,13.2976,4.59980,2470.18,2020-11-27T14:05:25Z
2020-11-27T12:07:31Z,42.805,6.029,13.2974,4.59980,2470.203,2020-11-27T14:08:29Z
2020-11-27T12:10:34Z,42.805,6.029,13.2979,4.59980,2470.194,2020-11-27T14:11:32Z
2020-11-27T12:13:37Z,42.805,6.029,13.2975,4.59979,2470.194,2020-11-27T14:14:35Z
2020-11-27T12:16:41Z,42.805,6.029,13.2975,4.59979,2470.203,2020-11-27T14:17:38Z
2020-11-27T12:19:44Z,42.805,6.029,13.2979,4.59980,2470.203,2020-11-27T14:20:41Z
2020-11-27T12:22:47Z,42.805,6.029,13.2980,4.59980,2470.203,2020-11-27T14:23:44Z
2020-11-27T12:25:50Z,42.805,6.029,13.2980,4.59980,2470.203,2020-11-27T14:26:47Z
2020-11-27T12:28:53Z,42.805,6.029,13.2977,4.59980,2470.203,2020-11-27T14:29:51Z
2020-11-27T12:31:56Z,42.805,6.029,13.2974,4.59979,2470.194,2020-11-27T14:32:54Z
2020-11-27T12:34:59Z,42.805,6.029,13.2979,4.59981,2470.208,2020-11-27T14:35:57Z
2020-11-27T12:38:02Z,42.805,6.029,13.2976,4.59980,2470.203,2020-11-27T14:39:00Z
2020-11-27T12:41:06Z,42.805,6.029,13.2979,4.59980,2470.24,2020-11-27T14:42:03Z
2020-11-27T12:44:09Z,42.805,6.029,13.2976,4.59979,2470.227,2020-11-27T14:45:06Z
2020-11-27T12:47:12Z,42.805,6.029,13.2977,4.59980,2470.18,2020-11-27T14:48:09Z
2020-11-27T12:50:15Z,42.805,6.029,13.2979,4.59980,2470.217,2020-11-27T14:51:12Z
2020-11-27T12:53:18Z,42.805,6.029,13.2976,4.59980,2470.194,2020-11-27T14:54:16Z
2020-11-27T12:56:21Z,42.805,6.029,13.2979,4.59980,2470.203,2020-11-27T14:57:19Z
2020-11-27T12:59:24Z,42.805,6.029,13.2977,4.59980,2470.227,2020-11-27T15:00:22Z
2020-11-27T13:02:27Z,42.805,6.029,13.2979,4.59981,2470.203,2020-11-27T15:03:25Z
2020-11-27T13:05:31Z,42.805,6.029,13.2979,4.59979,2470.203,2020-11-27T15:06:28Z
2020-11-27T13:08:34Z,42.805,6.029,13.2978,4.59980,2470.227,2020-11-27T15:09:31Z
2020-11-27T13:11:37Z,42.805,6.029,13.2974,4.59979,2470.217,2020-11-27T15:12:34Z
2020-11-27T13:14:40Z,42.805,6.029,13.2976,4.59979,2470.18,2020-11-27T15:15:37Z
2020-11-27T13:17:43Z,42.805,6.029,13.2977,4.59979,2470.203,2020-11-27T15:18:41Z
2020-11-27T13:20:46Z,42.805,6.029,13.2977,4.59979,2470.217,2020-11-27T15:21:44Z
2020-11-27T13:23:49Z,42.805,6.029,13.2978,4.59979,2470.194,2020-11-27T15:24:47Z
2020-11-27T13:26:52Z,42.805,6.029,13.2978,4.59979,2470.227,2020-11-27T15:27:50Z
2020-11-27T13:29:56Z,42.805,6.029,13.2980,4.59980,2470.189,2020-11-27T15:30:53Z
2020-11-27T13:32:59Z,42.805,6.029,13.2976,4.59979,2470.203,2020-11-27T15:33:56Z
2020-11-27T13:36:02Z,42.805,6.029,13.2978,4.59980,2470.227,2020-11-27T15:36:59Z
2020-11-27T13:39:05Z,42.805,6.029,13.2977,4.59980,2470.203,2020-11-27T15:40:02Z
2020-11-27T13:42:08Z,42.805,6.029,13.2977,4.59979,2470.203,2020-11-27T15:43:06Z
2020-11-27T13:45:11Z,42.805,6.029,13.2976,4.59979,2470.24,2020-11-27T15:46:09Z
2020-11-27T13:48:14Z,42.805,6.029,13.2976,4.59979,2470.24,2020-11-27T15:49:12Z
2020-11-27T13:51:17Z,42.805,6.029,13.2979,4.59979,2470.227,2020-11-27T15:52:15Z
2020-11-27T13:54:21Z,42.805,6.029,13.2979,4.59979,2470.227,2020-11-27T15:55:18Z
2020-11-27T13:57:24Z,42.805,6.029,13.2976,4.59980,2470.203,2020-11-27T15:58:21Z
2020-11-27T14:00:27Z,42.805,6.029,13.2979,4.59979,2470.25,2020-11-27T16:01:24Z
2020-11-27T14:03:30Z,42.805,6.029,13.2976,4.59979,2470.227,2020-11-27T16:04:27Z
2020-11-27T14:06:33Z,42.805,6.029,13.2977,4.59979,2470.217,2020-11-27T16:07:31Z
2020-11-27T14:09:36Z,42.805,6.029,13.2979,4.59979,2470.25,2020-11-27T16:10:34Z
2020-11-27T14:12:39Z,42.805,6.029,13.2978,4.59981,2470.227,2020-11-27T16:13:37Z
2020-11-27T14:15:43Z,42.805,6.029,13.2973,4.59981,2470.227,2020-11-27T16:16:40Z
2020-11-27T14:18:46Z,42.805,6.029,13.2975,4.59979,2470.25,2020-11-27T16:19:43Z
2020-11-27T14:21:49Z,42.805,6.029,13.2981,4.59980,2470.203,2020-11-27T16:22:46Z
2020-11-27T14:24:52Z,42.805,6.029,13.2975,4.59980,2470.24,2020-11-27T16:25:49Z
2020-11-27T14:27:55Z,42.805,6.029,13.2976,4.59980,2470.264,2020-11-27T16:28:52Z
2020-11-27T14:30:58Z,42.805,6.029,13.2974,4.59979,2470.264,2020-11-27T16:31:56Z
2020-11-27T14:34:01Z,42.805,6.029,13.2978,4.59979,2470.287,2020-11-27T16:34:59Z
2020-11-27T14:37:04Z,42.805,6.029,13.2976,4.59980,2470.264,2020-11-27T16:38:02Z
2020-11-27T14:40:07Z,42.805,6.029,13.2979,4.59980,2470.273,2020-11-27T16:41:05Z
2020-11-27T14:43:11Z,42.805,6.029,13.2976,4.59981,2470.273,2020-11-27T16:44:08Z
2020-11-27T14:46:14Z,42.805,6.029,13.2973,4.59980,2470.264,2020-11-27T16:47:11Z
2020-11-27T14:49:17Z,42.805,6.029,13.2976,4.59980,2470.273,2020-11-27T16:50:14Z
2020-11-27T14:52:20Z,42.805,6.029,13.2977,4.59979,2470.25,2020-11-27T16:53:17Z
2020-11-27T14:55:23Z,42.805,6.029,13.2976,4.59980,2470.31,2020-11-27T16:56:21Z
2020-11-27T14:58:26Z,42.805,6.029,13.2979,4.59980,2470.25,2020-11-27T16:59:24Z
2020-11-27T15:01:29Z,42.805,6.029,13.2974,4.59979,2470.297,2020-11-27T17:02:27Z